| time (UTC) | temp F | wind direction | speed MPH | gust MPH | rain 1hr in | rain 24hr in | rain mn in | humidity % | barometer mb |
| 20260902223041 | 93 | 180 | 0.0 | 1.0 | 0.00 | 0.00 | 0.00 | 60 | 1012.8 |
| 20260902221041 | 94 | 194 | 1.0 | 3.0 | 0.00 | 0.00 | 0.00 | 59 | 1012.8 |
| 20260902220042 | 93 | 223 | 2.0 | 4.0 | 0.00 | 0.00 | 0.00 | 61 | 1012.8 |
| 20260902215042 | 93 | 210 | 1.0 | 5.0 | 0.00 | 0.00 | 0.00 | 63 | 1012.9 |
| 20260902214044 | 92 | 114 | 0.0 | 0.0 | 0.00 | 0.00 | 0.00 | 63 | 1013.0 |
| 20260902213041 | 92 | 212 | 1.0 | 3.0 | 0.00 | 0.01 | 0.00 | 64 | 1013.1 |
| 20260902211140 | 93 | 222 | 0.0 | 2.0 | 0.00 | 0.01 | 0.00 | 60 | 1013.2 |
| 20260902210141 | 94 | 223 | 1.0 | 5.0 | 0.00 | 0.01 | 0.00 | 57 | 1013.2 |
| 20260902205240 | 95 | 222 | 3.0 | 5.0 | 0.00 | 0.01 | 0.00 | 54 | 1013.2 |
| 20260902204241 | 96 | 216 | 2.0 | 5.0 | 0.00 | 0.01 | 0.00 | 53 | 1013.3 |
| 20260902203240 | 96 | 206 | 2.0 | 5.0 | 0.00 | 0.01 | 0.00 | 54 | 1013.4 |
| 20260902200342 | 95 | 185 | 0.0 | 3.0 | 0.00 | 0.01 | 0.00 | 55 | 1013.8 |
| 20260902193440 | 94 | 180 | 0.0 | 1.0 | 0.00 | 0.01 | 0.00 | 58 | 1014.3 |
| 20260902192443 | 93 | 225 | 0.0 | 3.0 | 0.00 | 0.02 | 0.00 | 57 | 1014.2 |
| 20260902191441 | 93 | 225 | 0.0 | 2.0 | 0.00 | 0.02 | 0.00 | 57 | 1014.5 |
| 20260902190443 | 93 | 225 | 0.0 | 2.0 | 0.00 | 0.02 | 0.00 | 57 | 1014.4 |
| 20260902185442 | 94 | 225 | 0.0 | 2.0 | 0.00 | 0.02 | 0.00 | 57 | 1014.4 |
| 20260902184542 | 94 | 237 | 0.0 | 1.0 | 0.00 | 0.02 | 0.00 | 57 | 1014.7 |
| 20260902183641 | 95 | 237 | 0.0 | 1.0 | 0.00 | 0.02 | 0.00 | 57 | 1014.8 |
| 20260902182740 | 95 | 234 | 1.0 | 2.0 | 0.00 | 0.03 | 0.00 | 58 | 1014.9 |
| 20260902181743 | 94 | 225 | 1.0 | 2.0 | 0.00 | 0.03 | 0.00 | 60 | 1015.2 |
| 20260902174944 | 92 | 225 | 0.0 | 0.0 | 0.00 | 0.03 | 0.00 | 65 | 1015.6 |
| 20260902173943 | 91 | 215 | 1.0 | 4.0 | 0.00 | 0.03 | 0.00 | 68 | 1015.7 |
| 20260902173041 | 90 | 202 | 0.0 | 1.0 | 0.00 | 0.03 | 0.00 | 69 | 1015.7 |
| 20260902172042 | 91 | 202 | 0.0 | 1.0 | 0.00 | 0.03 | 0.00 | 69 | 1015.9 |
| 20260902171043 | 91 | 225 | 0.0 | 3.0 | 0.00 | 0.04 | 0.00 | 69 | 1016.0 |
| 20260902165239 | 91 | 202 | 0.0 | 1.0 | 0.00 | 0.04 | 0.00 | 71 | 1016.1 |
| 20260902164241 | 90 | 230 | 1.0 | 3.0 | 0.00 | 0.04 | 0.00 | 72 | 1016.4 |
| 20260902163242 | 90 | 220 | 0.0 | 2.0 | 0.00 | 0.04 | 0.00 | 74 | 1016.6 |
| 20260902162242 | 89 | 202 | 0.0 | 0.0 | 0.00 | 0.04 | 0.00 | 76 | 1016.6 |
| 20260902161243 | 88 | 178 | 0.0 | 0.0 | 0.00 | 0.04 | 0.00 | 77 | 1016.4 |
| 20260902160242 | 88 | 225 | 0.0 | 2.0 | 0.00 | 0.04 | 0.00 | 77 | 1016.5 |
| 20260902155242 | 87 | 225 | 1.0 | 3.0 | 0.00 | 0.04 | 0.00 | 78 | 1016.6 |
| 20260902153242 | 86 | 225 | 0.0 | 2.0 | 0.00 | 0.04 | 0.00 | 83 | 1016.3 |
| 20260902152242 | 85 | 204 | 0.0 | 2.0 | 0.00 | 0.04 | 0.00 | 84 | 1016.4 |
| 20260902150242 | 84 | 218 | 2.0 | 5.0 | 0.00 | 0.04 | 0.00 | 86 | 1016.2 |
| 20260902143240 | 82 | 180 | 0.0 | 2.0 | 0.00 | 0.04 | 0.00 | 87 | 1015.9 |
| 20260902142241 | 81 | 180 | 0.0 | 0.0 | 0.00 | 0.04 | 0.00 | 87 | 1016.0 |
| 20260902141241 | 81 | 180 | 0.0 | 0.0 | 0.00 | 0.04 | 0.00 | 86 | 1016.2 |
| 20260902140242 | 81 | 180 | 0.0 | 0.0 | 0.00 | 0.04 | 0.00 | 86 | 1016.1 |
| 20260902135339 | 81 | 180 | 0.0 | 1.0 | 0.00 | 0.04 | 0.00 | 86 | 1016.2 |
| 20260902134342 | 80 | 180 | 0.0 | 0.0 | 0.00 | 0.04 | 0.00 | 85 | 1016.0 |
| 20260902132342 | 80 | 180 | 0.0 | 0.0 | 0.00 | 0.04 | 0.00 | 85 | 1016.0 |
| 20260902131341 | 80 | 180 | 0.0 | 0.0 | 0.00 | 0.04 | 0.00 | 83 | 1015.9 |
| 20260902130344 | 80 | 225 | 0.0 | 1.0 | 0.00 | 0.04 | 0.00 | 84 | 1015.5 |
| 20260902125440 | 80 | 225 | 0.0 | 1.0 | 0.00 | 0.04 | 0.00 | 83 | 1015.5 |
| 20260902124341 | 80 | 202 | 0.0 | 1.0 | 0.00 | 0.04 | 0.00 | 83 | 1015.5 |
| 20260902123341 | 80 | 180 | 0.0 | 1.0 | 0.00 | 0.04 | 0.00 | 83 | 1015.4 |
| 20260902121441 | 80 | 225 | 1.0 | 1.0 | 0.00 | 0.04 | 0.00 | 89 | 1014.9 |
| 20260902120442 | 80 | 222 | 1.0 | 2.0 | 0.00 | 0.04 | 0.00 | 91 | 1015.0 |
| 20260902115442 | 80 | 202 | 1.0 | 2.0 | 0.00 | 0.04 | 0.00 | 92 | 1015.0 |
| 20260902114541 | 80 | 225 | 0.0 | 1.0 | 0.00 | 0.04 | 0.00 | 91 | 1014.8 |
| 20260902113540 | 80 | 225 | 0.0 | 0.0 | 0.00 | 0.04 | 0.00 | 91 | 1014.8 |
| 20260902112543 | 80 | 225 | 0.0 | 0.0 | 0.00 | 0.04 | 0.00 | 92 | 1014.8 |
| 20260902111641 | 80 | 225 | 0.0 | 0.0 | 0.00 | 0.04 | 0.00 | 92 | 1014.8 |
| 20260902111543 | 80 | 225 | 0.0 | 0.0 | 0.00 | 0.04 | 0.00 | 92 | 1014.7 |
| 20260902110540 | 80 | 225 | 1.0 | 2.0 | 0.00 | 0.04 | 0.00 | 92 | 1014.6 |
| 20260902105539 | 80 | 202 | 0.0 | 1.0 | 0.00 | 0.04 | 0.00 | 91 | 1014.6 |
| 20260902104542 | 80 | 202 | 0.0 | 0.0 | 0.00 | 0.04 | 0.00 | 91 | 1014.7 |
| 20260902103542 | 80 | 202 | 0.0 | 0.0 | 0.00 | 0.04 | 0.00 | 91 | 1014.7 |
| 20260902102541 | 80 | 202 | 0.0 | 0.0 | 0.00 | 0.04 | 0.00 | 91 | 1014.8 |
| 20260902102442 | 80 | 202 | 0.0 | 0.0 | 0.00 | 0.04 | 0.00 | 91 | 1014.7 |
| 20260902101541 | 80 | 202 | 0.0 | 0.0 | 0.00 | 0.04 | 0.00 | 91 | 1014.7 |
| 20260902100540 | 80 | 202 | 0.0 | 0.0 | 0.00 | 0.04 | 0.00 | 90 | 1014.4 |
| 20260902095542 | 80 | 225 | 0.0 | 1.0 | 0.00 | 0.04 | 0.00 | 90 | 1014.3 |
| 20260902094556 | 80 | 225 | 1.0 | 2.0 | 0.00 | 0.04 | 0.00 | 90 | 1014.5 |
| 20260902093640 | 80 | 225 | 1.0 | 1.0 | 0.00 | 0.04 | 0.00 | 90 | 1014.4 |
| 20260902092643 | 80 | 225 | 0.0 | 1.0 | 0.00 | 0.04 | 0.00 | 90 | 1014.4 |
| 20260902091742 | 80 | 225 | 0.0 | 0.0 | 0.00 | 0.04 | 0.00 | 89 | 1014.3 |
| 20260902090740 | 80 | 202 | 0.0 | 1.0 | 0.00 | 0.04 | 0.00 | 89 | 1014.1 |
| 20260902084740 | 80 | 202 | 1.0 | 3.0 | 0.00 | 0.04 | 0.00 | 90 | 1014.2 |
| 20260902081842 | 80 | 202 | 0.0 | 1.0 | 0.00 | 0.04 | 0.00 | 90 | 1014.3 |
| 20260902074842 | 80 | 225 | 0.0 | 2.0 | 0.00 | 0.04 | 0.00 | 90 | 1014.5 |
| 20260902073843 | 80 | 225 | 0.0 | 1.0 | 0.00 | 0.04 | 0.00 | 89 | 1014.5 |
| 20260902072840 | 80 | 225 | 0.0 | 1.0 | 0.00 | 0.04 | 0.00 | 90 | 1014.5 |
| 20260902070842 | 81 | 225 | 0.0 | 0.0 | 0.00 | 0.04 | 0.00 | 88 | 1014.6 |
| 20260902064940 | 81 | 225 | 1.0 | 2.0 | 0.00 | 0.04 | 0.00 | 88 | 1014.4 |
| 20260902063943 | 81 | 202 | 0.0 | 1.0 | 0.00 | 0.04 | 0.00 | 89 | 1014.4 |
| 20260902063040 | 81 | 225 | 1.0 | 2.0 | 0.00 | 0.04 | 0.00 | 89 | 1014.4 |
| 20260902062042 | 81 | 221 | 0.0 | 2.0 | 0.00 | 0.04 | 0.00 | 89 | 1014.3 |
| 20260902060140 | 81 | 208 | 2.0 | 3.0 | 0.00 | 0.04 | 0.00 | 87 | 1014.3 |
| 20260902055142 | 81 | 225 | 0.0 | 2.0 | 0.00 | 0.04 | 0.00 | 88 | 1014.4 |
| 20260902054142 | 81 | 225 | 0.0 | 1.0 | 0.00 | 0.04 | 0.00 | 88 | 1014.3 |
| 20260902053143 | 80 | 202 | 0.0 | 2.0 | 0.00 | 0.04 | 0.00 | 88 | 1014.3 |
| 20260902052140 | 80 | 202 | 1.0 | 1.0 | 0.00 | 0.04 | 0.00 | 88 | 1014.6 |
| 20260902051141 | 80 | 225 | 0.0 | 0.0 | 0.00 | 0.04 | 0.00 | 88 | 1014.6 |
| 20260902050140 | 79 | 225 | 0.0 | 0.0 | 0.00 | 0.04 | 0.00 | 88 | 1014.6 |
| 20260902045146 | 80 | 225 | 0.0 | 0.0 | 0.00 | 0.04 | 0.04 | 87 | 1014.6 |
| 20260902044146 | 80 | 225 | 0.0 | 0.0 | 0.00 | 0.04 | 0.04 | 87 | 1014.7 |
| 20260902043147 | 80 | 225 | 0.0 | 0.0 | 0.00 | 0.04 | 0.04 | 86 | 1014.6 |
| 20260902042246 | 80 | 225 | 0.0 | 1.0 | 0.00 | 0.04 | 0.04 | 87 | 1014.4 |
| 20260902040346 | 79 | 225 | 0.0 | 0.0 | 0.00 | 0.04 | 0.04 | 87 | 1014.7 |
| 20260902035346 | 79 | 225 | 0.0 | 0.0 | 0.00 | 0.04 | 0.04 | 88 | 1014.6 |
| 20260902034347 | 79 | 225 | 0.0 | 0.0 | 0.00 | 0.04 | 0.04 | 87 | 1014.7 |
| 20260902033248 | 79 | 225 | 0.0 | 0.0 | 0.00 | 0.04 | 0.04 | 87 | 1014.8 |
| 20260902032247 | 79 | 225 | 0.0 | 0.0 | 0.00 | 0.04 | 0.04 | 87 | 1014.6 |
| 20260902031245 | 79 | 225 | 0.0 | 0.0 | 0.00 | 0.04 | 0.04 | 86 | 1014.3 |
| 20260902030246 | 79 | 225 | 0.0 | 1.0 | 0.00 | 0.04 | 0.04 | 87 | 1014.3 |
| 20260902025346 | 79 | 225 | 0.0 | 0.0 | 0.00 | 0.04 | 0.04 | 86 | 1014.3 |
| 20260902024349 | 79 | 225 | 0.0 | 0.0 | 0.00 | 0.04 | 0.04 | 87 | 1014.0 |
| 20260902023346 | 79 | 225 | 0.0 | 0.0 | 0.00 | 0.04 | 0.04 | 87 | 1013.8 |
| 20260902021447 | 79 | 225 | 0.0 | 0.0 | 0.00 | 0.04 | 0.04 | 87 | 1013.7 |
| 20260902020546 | 79 | 225 | 1.0 | 1.0 | 0.00 | 0.04 | 0.04 | 87 | 1013.4 |
| 20260902015644 | 79 | 225 | 0.0 | 0.0 | 0.00 | 0.04 | 0.04 | 87 | 1013.4 |
| 20260902014648 | 79 | 225 | 0.0 | 0.0 | 0.00 | 0.04 | 0.04 | 87 | 1013.4 |
| 20260902012747 | 79 | 225 | 0.0 | 0.0 | 0.00 | 0.04 | 0.04 | 87 | 1013.1 |
| 20260902011746 | 80 | 225 | 0.0 | 0.0 | 0.00 | 0.04 | 0.04 | 86 | 1013.0 |
| 20260902010745 | 80 | 225 | 0.0 | 0.0 | 0.00 | 0.04 | 0.04 | 86 | 1013.1 |
| 20260902005749 | 80 | 225 | 0.0 | 0.0 | 0.00 | 0.04 | 0.04 | 84 | 1012.9 |
| 20260902004846 | 80 | 225 | 0.0 | 1.0 | 0.00 | 0.04 | 0.04 | 85 | 1013.1 |
| 20260902002945 | 80 | 225 | 0.0 | 0.0 | 0.00 | 0.04 | 0.04 | 83 | 1013.3 |
| 20260902001947 | 80 | 225 | 0.0 | 0.0 | 0.00 | 0.04 | 0.04 | 84 | 1013.3 |
| 20260902000046 | 81 | 225 | 0.0 | 1.0 | 0.00 | 0.04 | 0.04 | 83 | 1013.5 |
| 20260901234147 | 81 | 225 | 0.0 | 0.0 | 0.00 | 0.04 | 0.04 | 84 | 1013.1 |
| 20260901233147 | 81 | 225 | 0.0 | 0.0 | 0.00 | 0.04 | 0.04 | 83 | 1013.2 |
| 20260901232246 | 81 | 180 | 0.0 | 0.0 | 0.00 | 0.04 | 0.04 | 84 | 1013.2 |
| 20260901231248 | 81 | 180 | 0.0 | 0.0 | 0.00 | 0.04 | 0.04 | 85 | 1013.5 |
| 20260901230246 | 81 | 180 | 0.0 | 1.0 | 0.00 | 0.04 | 0.04 | 85 | 1013.5 |
| 20260901225344 | 81 | 67 | 0.0 | 0.0 | 0.00 | 0.04 | 0.04 | 86 | 1013.6 |
| 20260901224345 | 82 | 180 | 0.0 | 0.0 | 0.00 | 0.04 | 0.04 | 86 | 1013.8 |
| 20260901223346 | 82 | 157 | 0.0 | 0.0 | 0.00 | 0.04 | 0.04 | 85 | 1013.7 |